Regional Weather Roundup
Issued by NWS

Home | Current Version | Previous Version | Text Only | Print | Product List | Glossary Off
Versions: 1 2 3 4 5 6 7 8 9 10 11 12 13 14 15 16 17 18 19 20 21 22 23 24 25 26 27 28 29 30 31 32 33 34 35 36 37 38 39 40 41 42 43 44 45 46 47 48 49 50

000
ASUS43 KLSX 261307
RWRMO

WEATHER SUMMARY FOR MISSOURI
NATIONAL WEATHER SERVICE SPRINGFIELD MO
800 AM CDT MON JUN 26 2017

NOTE: "FAIR" INDICATES FEW OR NO CLOUDS BELOW 12,000 FEET WITH NO
       SIGNIFICANT WEATHER AND/OR OBSTRUCTIONS TO VISIBILITY.
       CURRENT SKY AND/OR WEATHER CONDITIONS ARE NOT AVAILABLE FOR
       CHILLICOTHE AND FARMINGTON.

MOZ001>031-035>038-043-044-053-054-261400-
...NORTHERN AND WESTERN MISSOURI...

CITY           SKY/WX    TMP DP  RH WIND       PRES   REMARKS
KANSAS CTY INT PTSUNNY   60  56  86 N8        30.22R
KANSAS C DTWN  MOSUNNY   65  55  70 SW3       30.19R
LEE`S SUMMIT   SUNNY     64  51  62 S12       30.19S
ST JOSEPH      CLOUDY    58  56  93 CALM      30.22S
CHILLICOTHE      N/A     59  54  83 CALM      30.24R
KIRKSVILLE     CLOUDY    60  50  69 NE6       30.20F

$$
MOZ066>068-077>081-088>096-101>105-261400-
...SOUTHWEST MISSOURI...

CITY           SKY/WX    TMP DP  RH WIND       PRES   REMARKS
SPRINGFIELD    CLOUDY    65  60  84 S7        30.22F
JOPLIN         MOSUNNY   66  58  75 SE8       30.22F
BRANSON        CLOUDY    64  55  72 E9        30.27S

$$
MOZ032>034-039>042-045>050-055>058-069>072-261400-
...CENTRAL MISSOURI...

CITY           SKY/WX    TMP DP  RH WIND       PRES   REMARKS
COLUMBIA       SUNNY     63  55  75 CALM      30.21F
JEFFERSON CITY SUNNY     60  53  77 S5        30.22F
ROLLA          MOSUNNY   62  53  72 S8        30.23S
SEDALIA        SUNNY     62  57  83 S3        30.22F
WHITEMAN AFB   MOSUNNY   61  60  97 S5        30.19F
WARRENSBURG    SUNNY     57  54  88 SE3       30.20F
OSAGE BEACH    SUNNY     62  55  77 S3        30.24F

$$
MOZ051-052-059>065-261400-
...EAST CENTRAL MISSOURI...

CITY           SKY/WX    TMP DP  RH WIND       PRES   REMARKS
ST LOUIS INTL  MOSUNNY   68  51  54 W7        30.22S
SPIRIT OF STL  MOSUNNY   63  56  78 W3        30.22R
ST CHARLES     SUNNY     64  52  64 W5        30.21S

$$
MOZ072>076-082>087-097>100-106>115-261400-
...SOUTH CENTRAL AND SOUTHEAST MISSOURI...

CITY           SKY/WX    TMP DP  RH WIND       PRES   REMARKS
CAPE GIRARDEAU CLOUDY    65  58  78 SW3       30.23R
FARMINGTON     CLOUDY    64  53  67 SW3       30.25R
POPLAR BLUFF   CLOUDY    65  60  84 NW5       30.24R
WEST PLAINS    HVY RAIN  63  57  81 W3        30.28R

$$


USA.gov is the U.S. government's official web portal to all federal, state and local government web resources and services.